Regional Weather Roundup
Issued by NWS

Home | Current Version | Previous Version | Graphics & Text | Print | Product List | Glossary On
Versions: 1 2 3 4 5 6 7 8 9 10 11 12 13 14 15 16 17 18 19 20 21 22 23 24 25 26 27 28 29 30 31 32 33 34 35 36 37 38 39 40 41 42 43 44 45 46 47 48 49 50
000
ASUS43 KIND 190609
RWRIN

WEATHER ROUNDUP FOR INDIANA
NATIONAL WEATHER SERVICE INDIANAPOLIS IN
200 AM EDT SUN APR 19 2015

NOTE: "FAIR" INDICATES FEW OR NO CLOUDS BELOW 12,000 FEET WITH NO
SIGNIFICANT WEATHER AND/OR OBSTRUCTIONS TO VISIBILITY.

* - STATION DOES NOT REPORT WEATHER SUCH AS PRECIPITATION OR FOG.

+ - STATION NOT QUALITY CONTROLLED BY THE NATIONAL WEATHER SERVICE.
    USE DATA WITH CAUTION...ESPECIALLY DEWPOINT AND RELATIVE
    HUMIDITY OBSERVATIONS.

INZ001>003-010>013-019-020-190700-
NORTHWEST INDIANA

CITY           SKY/WX    TMP DP  RH WIND       PRES   REMARKS
GARY /AIRPORT/ FAIR      59  12  15 E13G18    29.96F
KNOX *+        FAIR      57 -22   3 E15G23    29.98S
MICHIGAN CITY+ FAIR      55  14  19 E7        29.99F
MONTICELLO +   FAIR      57  39  51 E7        29.94F
6HR MIN TEMP:  57; 6HR MAX TEMP:  72;

RENSSELAER +   FAIR      55  36  47 E13       29.95F
VALPARAISO     FAIR      54  21  27 E10       29.98F
6HR MIN TEMP:  48; 6HR MAX TEMP:  60;


$$

LMZ046-743>745-190700-
SOUTHERN LAKE MICHIGAN

STATION/POSITION TIME  TEMP WIND        PRES
                       AIR  DIR/SP/G
                 (UTC) (F)  (DEG/KT/KT) (MB)
BURNS HARBOR     0600   60  120/ 14/ 23 1015.2S
MICHIGAN CITY    0600   58   80/ 13/ 17   N/A
4NW MICH CITY    0600   55  130/ 16/ 21   N/A

$$

INZ004-005-014>016-021>024-190700-
NORTH CENTRAL INDIANA

CITY           SKY/WX    TMP DP  RH WIND       PRES   REMARKS
GOSHEN         FAIR      53  30  41 E14       30.02S
6HR MIN TEMP:  53; 6HR MAX TEMP:  68;

LOGANSPORT +   FAIR      54  34  47 E15       29.97F
ROCHESTER +    FAIR      57  32  38 E13       30.00F
SOUTH BEND     FAIR      58  22  24 E15G24    30.02S
6HR MIN TEMP:  58; 6HR MAX TEMP:  70;

WARSAW +       FAIR      54  32  43 E10       30.01S

$$

INZ006>009-017-018-025>027-190700-
NORTHEAST INDIANA

CITY           SKY/WX    TMP DP  RH WIND       PRES   REMARKS
ANGOLA *+      CLEAR     54  27  35 E14       30.05S
AUBURN +       FAIR      52  32  46 E10G17    30.05S
FORT WAYNE     CLOUDY    52  37  56 E16G24    30.02F
6HR MIN TEMP:  51; 6HR MAX TEMP:  64;

HUNTINGTON +   FAIR      51  33  48 E9        30.00F
6HR MIN TEMP:  51; 6HR MAX TEMP:  65;


$$

INZ028-029-035-036-043>045-051>053-190700-
WEST CENTRAL INDIANA

CITY           SKY/WX    TMP DP  RH WIND       PRES   REMARKS
CRAWFORDSVL +  FAIR      58  46  64 E10       29.91F
6HR MIN TEMP:  56; 6HR MAX TEMP:  69;

GREENCASTLE +  FAIR      61  45  55 E8        29.91S
LAFAYETTE      FAIR      59  43  55 E14       29.92F
6HR MIN TEMP:  59; 6HR MAX TEMP:  72;

TERRE HAUTE    FAIR      63  48  58 E6        29.88F
6HR MIN TEMP:  60; 6HR MAX TEMP:  70;


$$

INZ030>032-037>040-046>048-054>057-064-065-190700-
CENTRAL INDIANA

CITY           SKY/WX    TMP DP  RH WIND       PRES   REMARKS
CP ATTERBURY + FAIR      59  48  67 CALM      29.91F
FISHERS *+     FAIR      59  50  72 E7        29.94F
FRANKFORT +    FAIR      58  44  60 NE14G20   29.96S
6HR MIN TEMP:  58; 6HR MAX TEMP:  73;

GREENWOOD *+   FAIR      63  46  55 E8        29.92F
INDIANAPOLIS   CLOUDY    65  49  56 E13       29.90F
6HR MIN TEMP:  65; 6HR MAX TEMP:  72;

-EAGLE CREEK   FAIR      64  50  60 E10       29.92F
6HR MIN TEMP:  64; 6HR MAX TEMP:  73;

KOKOMO *+      FAIR      54  37  54 E15       29.96F
6HR MIN TEMP:  54; 6HR MAX TEMP:  72;

MARION +       FAIR      54  36  49 E14       29.98F
MT COMFORT *+  FAIR      59  43  55 NE9       29.94F
SHELBYVILLE    FAIR      62  51  67 E10       29.91F
6HR MIN TEMP:  62; 6HR MAX TEMP:  71;

ZIONSVILLE +   FAIR      60  46  60 E9        29.95F
6HR MIN TEMP:  60; 6HR MAX TEMP:  73;


$$

INZ033-034-041-042-049-050-058-059-190700-
EAST CENTRAL INDIANA

CITY           SKY/WX    TMP DP  RH WIND       PRES   REMARKS
MUNCIE         FAIR      55  40  56 E9        29.97F
6HR MIN TEMP:  55; 6HR MAX TEMP:  72;


$$

INZ060-061-067>069-081>083-085>088-190700-
SOUTHWEST INDIANA

CITY           SKY/WX    TMP DP  RH WIND       PRES   REMARKS
EVANSVILLE     FAIR      68  49  50 NE5       29.83F
6HR MIN TEMP:  67; 6HR MAX TEMP:  76;

HUNTINGBURG *+ FAIR      70  46  43 E13       29.85F
6HR MIN TEMP:  66; 6HR MAX TEMP:  72;

WASHINGTON +   FAIR      61  49  65 E6        29.85F
6HR MIN TEMP:  60; 6HR MAX TEMP:  73;


$$

INZ062-063-066-070>080-084-089>092-190700-
SOUTH CENTRAL AND SOUTHEAST INDIANA

CITY           SKY/WX    TMP DP  RH WIND       PRES   REMARKS
BEDFORD +      FAIR      64  45  48 E5        29.88F
BLOOMINGTON    FAIR      62  47  57 E5        29.89F
6HR MIN TEMP:  60; 6HR MAX TEMP:  74;

MADISON *+     FAIR      66  41  39 E7        29.92F
NORTH VERNON + FAIR      66  45  45 E8        29.91F

$$




USA.gov is the U.S. government's official web portal to all federal, state and local government web resources and services.